H1 CPF 2 NER 2024 10 11 9 285 01 glonass147 H2 2311401 9147 57517 2024 10 11 0 0 0 2024 10 14 23 45 0 900 1 1 0 0 0 1 H9 10 0 60594 0.00000 0 6850522.206 24541091.406 1047934.650 10 0 60594 900.00000 0 6901884.385 24180765.743 4248220.970 10 0 60594 1800.00000 0 6777452.895 23458608.361 7365929.728 10 0 60594 2700.00000 0 6434020.979 22411638.235 10340493.453 10 0 60594 3600.00000 0 5837225.766 21086894.485 13114161.818 10 0 60594 4500.00000 0 4963249.765 19539440.039 15633122.219 10 0 60594 5400.00000 0 3800078.709 17830050.439 17848540.494 10 0 60594 6300.00000 0 2348262.493 16022685.477 19717501.923 10 0 60594 7200.00000 0 621146.968 14181849.968 21203834.907 10 0 60594 8100.00000 0 -1355433.388 12369954.075 22278802.253 10 0 60594 9000.00000 0 -3543989.470 10644783.030 22921647.797 10 0 60594 9900.00000 0 -5896703.924 9057181.076 23119988.827 10 0 60594 10800.00000 0 -8357195.351 7649045.101 22870047.784 10 0 60594 11700.00000 0 -10862647.861 6451710.249 22176719.524 10 0 60594 12600.00000 0 -13346218.526 5484793.428 21053473.402 10 0 60594 13500.00000 0 -15739623.902 4755541.531 19522092.213 10 0 60594 14400.00000 0 -17975799.447 4258710.337 17612252.919 10 0 60594 15300.00000 0 -19991522.474 3976978.135 15360956.754 10 0 60594 16200.00000 0 -21729890.655 3881876.014 12811819.082 10 0 60594 17100.00000 0 -23142553.746 3935195.310 10014231.840 10 0 60594 18000.00000 0 -24191606.111 4090812.905 7022413.958 10 0 60594 18900.00000 0 -24851061.391 4296857.469 3894367.317 10 0 60594 19800.00000 0 -25107847.731 4498125.399 690757.791 10 0 60594 20700.00000 0 -24962281.745 4638644.472 -2526257.356 10 0 60594 21600.00000 0 -24428000.980 4664276.792 -5694233.204 10 0 60594 22500.00000 0 -23531357.277 4525250.645 -8751648.729 10 0 60594 23400.00000 0 -22310295.942 4178513.645 -11639102.429 10 0 60594 24300.00000 0 -20812767.319 3589806.783 -14300468.551 10 0 60594 25200.00000 0 -19094736.984 2735370.586 -16683991.090 10 0 60594 26100.00000 0 -17217877.755 1603209.979 -18743293.943 10 0 60594 27000.00000 0 -15247040.096 193862.861 -20438287.242 10 0 60594 27900.00000 0 -13247606.782 -1479361.686 -21735952.004 10 0 60594 28800.00000 0 -11282842.591 -3390687.397 -22610987.591 10 0 60594 29700.00000 0 -9411349.932 -5502706.031 -23046309.185 10 0 60594 30600.00000 0 -7684736.806 -7767710.487 -23033385.422 10 0 60594 31500.00000 0 -6145594.592 -10129471.450 -22572409.347 10 0 60594 32400.00000 0 -4825870.070 -12525384.510 -21672299.100 10 0 60594 33300.00000 0 -3745699.501 -14888898.952 -20350527.977 10 0 60594 34200.00000 0 -2912753.165 -17152127.310 -18632786.815 10 0 60594 35100.00000 0 -2322117.182 -19248526.972 -16552484.940 10 0 60594 36000.00000 0 -1956716.769 -21115541.795 -14150099.116 10 0 60594 36900.00000 0 -1788262.145 -22697093.094 -11472383.057 10 0 60594 37800.00000 0 -1778676.084 -23945815.493 -8571452.976 10 0 60594 38700.00000 0 -1881941.610 -24824943.759 -5503767.229 10 0 60594 39600.00000 0 -2046290.453 -25309771.342 -2329020.479 10 0 60594 40500.00000 0 -2216638.318 -25388619.529 891025.374 10 0 60594 41400.00000 0 -2337162.564 -25063276.794 4093749.928 10 0 60594 42300.00000 0 -2353911.958 -24348890.497 7216898.221 10 0 60594 43200.00000 0 -2217336.913 -23273316.285 10199795.270 10 0 60594 44100.00000 0 -1884632.308 -21875953.491 12984526.982 10 0 60594 45000.00000 0 -1321793.170 -20206116.433 15517064.069 10 0 60594 45900.00000 0 -505295.994 -18321010.901 17748307.122 10 0 60594 46800.00000 0 576665.478 -16283401.323 19635032.908 10 0 60594 47700.00000 0 1923442.199 -14159066.727 21140724.118 10 0 60594 48600.00000 0 3521720.675 -12014151.855 22236267.443 10 0 60594 49500.00000 0 5345851.756 -9912523.648 22900507.492 10 0 60594 50400.00000 0 7358703.995 -7913242.587 23120646.946 10 0 60594 51300.00000 0 9513006.542 -6068253.115 22892486.211 10 0 60594 52200.00000 0 11753126.365 -4420387.909 22220498.770 10 0 60594 53100.00000 0 14017206.749 -3001767.616 21117741.292 10 0 60594 54000.00000 0 16239579.171 -1832661.087 19605600.445 10 0 60594 54900.00000 0 18353349.401 -920852.153 17713381.150 10 0 60594 55800.00000 0 20293051.315 -261538.064 15477743.791 10 0 60594 56700.00000 0 21997258.978 162237.257 12942000.583 10 0 60594 57600.00000 0 23411048.964 378634.078 10155283.844 10 0 60594 58500.00000 0 24488210.786 425592.170 7171601.446 10 0 60594 59400.00000 0 25193113.362 348990.795 4048796.892 10 0 60594 60300.00000 0 25502149.473 200470.980 847433.508 10 0 60594 61200.00000 0 25404697.430 35012.027 -2370376.063 10 0 60594 62100.00000 0 24903559.155 -91635.280 -5542172.606 10 0 60594 63000.00000 0 24014855.622 -125550.039 -8606362.045 10 0 60594 63900.00000 0 22767383.287 -17166.735 -11503412.372 10 0 60594 64800.00000 0 21201457.764 276382.584 -14177012.321 10 0 60594 65700.00000 0 19367292.516 789209.394 -16575168.927 10 0 60594 66600.00000 0 17322979.941 1544981.187 -18651222.255 10 0 60594 67500.00000 0 15132158.958 2555677.975 -20364757.254 10 0 60594 68400.00000 0 12861466.334 3820846.786 -21682394.754 10 0 60594 69300.00000 0 10577878.158 5327387.159 -22578445.938 10 0 60594 70200.00000 0 8346052.372 7049878.370 -23035417.384 10 0 60594 71100.00000 0 6225783.221 8951436.252 -23044356.647 10 0 60594 72000.00000 0 4269673.795 10985065.179 -22605031.413 10 0 60594 72900.00000 0 2521123.615 13095449.828 -21725938.454 10 0 60594 73800.00000 0 1012714.995 15221112.769 -20424141.909 10 0 60594 74700.00000 0 -234934.823 17296848.202 -18724943.651 10 0 60594 75600.00000 0 -1213808.376 19256330.418 -16661391.860 10 0 60594 76500.00000 0 -1928583.824 21034787.873 -14273637.055 10 0 60594 77400.00000 0 -2396188.898 22571630.652 -11608148.032 10 0 60594 78300.00000 0 -2644832.991 23812920.918 -8716803.029 10 0 60594 79200.00000 0 -2712559.527 24713582.280 -5655874.056 10 0 60594 80100.00000 0 -2645381.174 25239254.987 -2484924.742 10 0 60594 81000.00000 0 -2495078.220 25367718.744 734356.188 10 0 60594 81900.00000 0 -2316754.697 25089823.375 3939362.245 10 0 60594 82800.00000 0 -2166257.099 24409888.344 7067792.907 10 0 60594 83700.00000 0 -2097566.142 23345554.852 10058869.154 10 0 60594 84600.00000 0 -2160272.964 21927097.315 12854516.519 10 0 60594 85500.00000 0 -2397247.219 20196223.910 15400492.278 10 0 60595 0.00000 0 -2842596.036 18204417.419 17647434.636 10 0 60595 900.00000 0 -3520000.495 16010885.383 19551815.023 10 0 60595 1800.00000 0 -4441499.170 13680208.461 21076772.689 10 0 60595 2700.00000 0 -5606770.709 11279781.724 22192820.321 10 0 60595 3600.00000 0 -7002945.111 8877157.936 22878405.028 10 0 60595 4500.00000 0 -8604951.936 6537401.786 23120316.147 10 0 60595 5400.00000 0 -10376391.237 4320564.324 22913932.819 10 0 60595 6300.00000 0 -12270891.356 2279381.243 22263307.365 10 0 60595 7200.00000 0 -14233897.715 457289.237 21181083.401 10 0 60595 8100.00000 0 -16204818.923 -1113158.746 19688250.492 10 0 60595 9000.00000 0 -18119441.845 -2411415.021 17813739.962 10 0 60595 9900.00000 0 -19912515.969 -3429550.186 15593869.222 10 0 60595 10800.00000 0 -21520400.344 -4172333.400 13071644.728 10 0 60595 11700.00000 0 -22883663.446 -4656777.584 10295936.168 10 0 60595 12600.00000 0 -23949527.938 -4911169.382 7320537.037 10 0 60595 13500.00000 0 -24674058.411 -4973625.132 4203128.951 10 0 60595 14400.00000 0 -25024000.493 -4890233.889 1004169.094 10 0 60595 15300.00000 0 -24978193.894 -4712865.960 -2214278.118 10 0 60595 16200.00000 0 -24528499.549 -4496739.542 -5389742.717 10 0 60595 17100.00000 0 -23680201.097 -4297848.464 -8460560.985 10 0 60595 18000.00000 0 -22451862.884 -4170360.062 -11367073.646 10 0 60595 18900.00000 0 -20874649.424 -4164093.701 -14052786.923 10 0 60595 19800.00000 0 -18991133.845 -4322187.218 -16465473.576 10 0 60595 20700.00000 0 -16853644.346 -4679050.823 -18558192.141 10 0 60595 21600.00000 0 -14522217.123 -5258695.950 -20290204.214 10 0 60595 22500.00000 0 -12062240.729 -6073510.839 -21627771.715 10 0 60595 23400.00000 0 -9541889.824 -7123535.833 -22544818.336 10 0 60595 24300.00000 0 -7029455.098 -8396270.383 -23023442.142 10 0 60595 25200.00000 0 -4590680.422 -9867021.317 -23054269.133 10 0 60595 26100.00000 0 -2286218.088 -11499779.134 -22636640.645 10 0 60595 27000.00000 0 -169307.945 -13248586.786 -21778630.679 10 0 60595 27900.00000 0 1716223.085 -15059344.557 -20496892.468 10 0 60595 28800.00000 0 3337558.034 -16871976.069 -18816336.929 10 0 60595 29700.00000 0 4674017.345 -18622865.068 -16769648.909 10 0 60595 30600.00000 0 5717670.382 -20247460.891 -14396650.372 10 0 60595 31500.00000 0 6473406.343 -21682943.156 -11743522.807 10 0 60595 32400.00000 0 6958462.826 -22870833.418 -8861904.041 10 0 60595 33300.00000 0 7201433.265 -23759443.594 -5807877.302 10 0 60595 34200.00000 0 7240796.569 -24306057.648 -2640872.746 10 0 60595 35100.00000 0 7123032.651 -24478754.313 577496.470 10 0 60595 36000.00000 0 6900405.049 -24257793.821 3784640.111 10 0 60595 36900.00000 0 6628505.955 -23636510.149 6918214.370 10 0 60595 37800.00000 0 6363668.865 -22621671.338 9917338.362 10 0 60595 38700.00000 0 6160359.451 -21233293.047 12723779.320 10 0 60595 39600.00000 0 6068655.834 -19503913.608 15283083.008 10 0 60595 40500.00000 0 6131925.292 -17477361.521 17545627.363 10 0 60595 41400.00000 0 6384795.721 -15207067.469 19467579.204 10 0 60595 42300.00000 0 6851507.383 -12753991.771 21011736.049 10 0 60595 43200.00000 0 7544714.220 -10184253.881 22148237.593 10 0 60595 44100.00000 0 8464784.910 -7566562.465 22855134.160 10 0 60595 45000.00000 0 9599632.884 -4969552.457 23118802.167 10 0 60595 45900.00000 0 10925082.457 -2459138.854 22934199.639 10 0 60595 46800.00000 0 12405755.979 -95995.898 22304957.629 10 0 60595 47700.00000 0 13996445.381 2066735.096 21243306.366 10 0 60595 48600.00000 0 15643911.500 3985415.711 19769837.777 10 0 60595 49500.00000 0 17289036.897 5627477.981 17913108.847 10 0 60595 50400.00000 0 18869243.198 6972525.840 15709093.093 10 0 60595 51300.00000 0 20321072.879 8012926.027 13200490.079 10 0 60595 52200.00000 0 21582828.422 8753864.962 10435905.503 10 0 60595 53100.00000 0 22597159.010 9212870.148 7468916.874 10 0 60595 54000.00000 0 23313486.777 9418816.857 4357042.065 10 0 60595 54900.00000 0 23690170.961 9410462.283 1160629.994 10 0 60595 55800.00000 0 23696318.807 9234569.130 -2058305.482 10 0 60595 56700.00000 0 23313166.594 8943697.899 -5237286.136 10 0 60595 57600.00000 0 22534971.872 8593761.246 -8314581.194 10 0 60595 58500.00000 0 21369378.300 8241443.878 -11230406.693 10 0 60595 59400.00000 0 19837236.561 7941597.380 -13928088.861 10 0 60595 60300.00000 0 17971887.548 7744720.539 -16355168.579 10 0 60595 61200.00000 0 15817936.659 7694632.273 -18464425.089 10 0 60595 62100.00000 0 13429569.399 7826436.258 -20214798.715 10 0 60595 63000.00000 0 10868477.732 8164864.128 -21572194.396 10 0 60595 63900.00000 0 8201483.041 8723068.190 -22510150.113 10 0 60595 64800.00000 0 5497954.240 9501915.697 -23010357.033 10 0 60595 65700.00000 0 2827128.176 10489815.572 -23063021.017 10 0 60595 66600.00000 0 255443.626 11663086.039 -22667058.225 10 0 60595 67500.00000 0 -2156000.393 12986848.791 -21830120.743 10 0 60595 68400.00000 0 -4353756.449 14416413.016 -20568451.390 10 0 60595 69300.00000 0 -6294014.624 15899091.847 -18906570.204 10 0 60595 70200.00000 0 -7944180.220 17376375.356 -16876798.346 10 0 60595 71100.00000 0 -9283977.955 18786368.943 -14518628.444 10 0 60595 72000.00000 0 -10306037.332 20066394.465 -11877953.471 10 0 60595 72900.00000 0 -11015935.679 21155644.343 -9006169.241 10 0 60595 73800.00000 0 -11431698.385 21997776.404 -5959168.232 10 0 60595 74700.00000 0 -11582778.788 22543339.514 -2796244.835 10 0 60595 75600.00000 0 -11508562.337 22751927.198 421065.951 10 0 60595 76500.00000 0 -11256459.789 22593967.921 3630192.981 10 0 60595 77400.00000 0 -10879671.606 22052076.188 6768752.200 10 0 60595 78300.00000 0 -10434719.563 21121907.359 9775764.059 10 0 60595 79200.00000 0 -9978851.160 19812480.187 12592840.765 10 0 60595 80100.00000 0 -9567427.566 18145953.654 15165319.882 10 0 60595 81000.00000 0 -9251406.058 16156867.774 17443322.155 10 0 60595 81900.00000 0 -9075023.511 13890880.385 19382713.349 10 0 60595 82800.00000 0 -9073778.625 11403053.004 20945951.996 10 0 60595 83700.00000 0 -9272797.543 8755757.287 22102807.502 10 0 60595 84600.00000 0 -9685651.232 6016289.076 22830935.765 10 0 60595 85500.00000 0 -10313673.856 3254288.811 23116302.243 10 0 60596 0.00000 0 -11145810.278 539074.813 22953445.351 10 0 60596 900.00000 0 -12158999.448 -2063002.432 22345575.780 10 0 60596 1800.00000 0 -13319076.470 -4491072.973 21304510.711 10 0 60596 2700.00000 0 -14582157.469 -6692029.208 19850444.157 10 0 60596 3600.00000 0 -15896448.761 -8622480.060 18011557.870 10 0 60596 4500.00000 0 -17204405.780 -10250299.320 15823479.970 10 0 60596 5400.00000 0 -18445152.139 -11555704.930 13328601.078 10 0 60596 6300.00000 0 -19557058.279 -12531825.495 10575260.360 10 0 60596 7200.00000 0 -20480372.275 -13184731.348 7616816.400 10 0 60596 8100.00000 0 -21159792.847 -13532929.648 4510620.065 10 0 60596 9000.00000 0 -21546876.660 -13606345.238 1316908.536 10 0 60596 9900.00000 0 -21602178.559 -13444830.403 -1902358.502 10 0 60596 10800.00000 0 -21297034.163 -13096266.489 -5084698.244 10 0 60596 11700.00000 0 -20614908.997 -12614337.520 -8168316.541 10 0 60596 12600.00000 0 -19552256.230 -12056069.910 -11093308.358 10 0 60596 13500.00000 0 -18118845.638 -11479242.324 -13802823.399 10 0 60596 14400.00000 0 -16337548.466 -10939775.375 -16244173.904 10 0 60596 15300.00000 0 -14243585.746 -10489211.809 -18369862.727 10 0 60596 16200.00000 0 -11883270.120 -10172394.110 -20138511.385 10 0 60596 17100.00000 0 -9312292.493 -10025438.171 -21515669.766 10 0 60596 18000.00000 0 -6593623.991 -10074089.261 -22474491.463 10 0 60596 18900.00000 0 -3795119.830 -10332530.410 -22996261.430 10 0 60596 19800.00000 0 -986924.210 -10802694.266 -23070765.450 10 0 60596 20700.00000 0 1761216.202 -11474108.271 -22696493.996 10 0 60596 21600.00000 0 4382618.824 -12324280.449 -21880676.241 10 0 60596 22500.00000 0 6816201.066 -13319610.338 -20639143.188 10 0 60596 23400.00000 0 9008780.271 -14416787.223 -18996022.264 10 0 60596 24300.00000 0 10917042.228 -15564617.215 -16983268.962 10 0 60596 25200.00000 0 12509096.539 -16706202.359 -14640044.355 10 0 60596 26100.00000 0 13765554.528 -17781379.846 -12011950.493 10 0 60596 27000.00000 0 14680085.356 -18729318.163 -9150138.603 10 0 60596 27900.00000 0 15259428.178 -19491160.159 -6110307.680 10 0 60596 28800.00000 0 15522861.070 -20012600.824 -2951613.514 10 0 60596 29700.00000 0 15501150.618 -20246290.250 264489.949 10 0 60596 30600.00000 0 15235028.006 -20153959.651 3475453.548 10 0 60596 31500.00000 0 14773257.556 -19708180.115 6618855.802 10 0 60596 32400.00000 0 14170380.834 -18893679.471 9633621.164 10 0 60596 33300.00000 0 13484232.962 -17708161.491 12461209.295 10 0 60596 34200.00000 0 12773337.161 -16162592.861 15046751.767 10 0 60596 35100.00000 0 12094288.272 -14280945.850 17340114.057 10 0 60596 36000.00000 0 11499236.001 -12099407.548 19296862.476 10 0 60596 36900.00000 0 11033573.967 -9665088.766 20879117.835 10 0 60596 37800.00000 0 10733931.535 -7034286.484 22056280.168 10 0 60596 38700.00000 0 10626552.275 -4270371.921 22805611.530 10 0 60596 39600.00000 0 10726126.496 -1441391.630 23112666.664 10 0 60596 40500.00000 0 11035126.113 1382519.532 22971564.238 10 0 60596 41400.00000 0 11543669.177 4131807.293 22385094.294 10 0 60596 42300.00000 0 12229919.324 6740139.279 21364660.373 10 0 60596 43200.00000 0 13061003.307 9146910.651 19930057.744 10 0 60596 44100.00000 0 13994408.324 11299511.722 18109091.905 10 0 60596 45000.00000 0 14979800.977 13155264.812 15937044.372 10 0 60596 45900.00000 0 15961192.179 14682951.288 13455995.432 10 0 60596 46800.00000 0 16879357.860 15863866.426 10714016.154 10 0 60596 47700.00000 0 17674414.390 16692359.097 7764244.445 10 0 60596 48600.00000 0 18288441.022 17175834.480 4663862.232 10 0 60596 49500.00000 0 18668039.251 17334220.271 1472992.853 10 0 60596 50400.00000 0 18766721.310 17198919.081 -1746460.424 10 0 60596 51300.00000 0 18547026.795 16811291.291 -4932012.546 10 0 60596 52200.00000 0 17982277.498 16220732.295 -8021808.340 10 0 60596 53100.00000 0 17057895.456 15482425.210 -10955824.019 10 0 60596 54000.00000 0 15772227.342 14654863.926 -13677034.980 10 0 60596 54900.00000 0 14136838.984 13797251.075 -16132526.916 10 0 60596 55800.00000 0 12176265.946 12966880.969 -18274528.247 10 0 60596 56700.00000 0 9927228.977 12216618.165 -20061343.496 10 0 60596 57600.00000 0 7437345.547 11592578.425 -21458169.188 10 0 60596 58500.00000 0 4763389.926 11132110.240 -22437776.101 10 0 60596 59400.00000 0 1969173.187 10862162.537 -22981044.417 10 0 60596 60300.00000 0 -876869.500 10798107.802 -23077341.121 10 0 60596 61200.00000 0 -3704284.543 10943070.736 -22724732.066 10 0 60596 62100.00000 0 -6443290.689 11287791.179 -21930024.289 10 0 60596 63000.00000 0 -9027443.294 11811027.512 -20708637.415 10 0 60596 63900.00000 0 -11396161.473 12480483.837 -19084306.327 10 0 60596 64800.00000 0 -13497013.117 13254222.036 -17088620.512 10 0 60596 65700.00000 0 -15287662.799 14082499.164 -14760408.787 10 0 60596 66600.00000 0 -16737401.614 14909952.458 -12144981.236 10 0 60596 67500.00000 0 -17828195.567 15678039.304 -9293243.149 10 0 60596 68400.00000 0 -18555209.369 16327628.522 -6260698.438 10 0 60596 69300.00000 0 -18926784.710 16801632.716 -3106362.452 10 0 60596 70200.00000 0 -18963875.173 17047569.627 108393.990 10 0 60596 71100.00000 0 -18698963.024 17019943.379 3321045.996 10 0 60596 72000.00000 0 -18174505.077 16682344.222 6469137.172 10 0 60596 72900.00000 0 -17440974.717 16009177.481 9491498.705 10 0 60596 73800.00000 0 -16554584.139 14986948.257 12329440.616 10 0 60596 74700.00000 0 -15574784.091 13615047.434 14927891.547 10 0 60596 75600.00000 0 -14561647.484 11906005.739 17236464.830 10 0 60596 76500.00000 0 -13573247.610 9885205.063 19210430.443 10 0 60596 77400.00000 0 -12663141.489 7590059.016 20811574.491 10 0 60596 78300.00000 0 -11878063.863 5068696.811 22008930.464 10 0 60596 79200.00000 0 -11255928.117 2378204.999 22779369.119 10 0 60596 80100.00000 0 -10824217.173 -417500.260 23108036.669 10 0 60596 81000.00000 0 -10598830.827 -3250082.708 22988633.843 10 0 60596 81900.00000 0 -10583436.915 -6049378.310 22423531.282 10 0 60596 82800.00000 0 -10769352.631 -8746064.009 21423719.647 10 0 60596 83700.00000 0 -11135960.369 -11274293.651 20008595.677 10 0 60596 84600.00000 0 -11651640.340 -13574193.171 18205588.269 10 0 60596 85500.00000 0 -12275180.826 -15594112.891 16049631.433 10 0 60597 0.00000 0 -12957607.051 -17292544.566 13582493.943 10 0 60597 900.00000 0 -13644352.641 -18639625.402 10851976.429 10 0 60597 1800.00000 0 -14277681.940 -19618165.147 7910994.024 10 0 60597 2700.00000 0 -14799262.926 -20224157.067 4816557.062 10 0 60597 3600.00000 0 -15152781.741 -20466749.607 1628672.098 10 0 60597 4500.00000 0 -15286489.042 -20367681.158 -1590817.190 10 0 60597 5400.00000 0 -15155570.491 -19960201.582 -4779426.861 10 0 60597 6300.00000 0 -14724240.762 -19287525.876 -7875244.213 10 0 60597 7200.00000 0 -13967471.819 -18400884.952 -10818130.276 10 0 60597 8100.00000 0 -12872281.330 -17357255.612 -13550889.730 10 0 60597 9000.00000 0 -11438525.401 -16216865.315 -16020385.214 10 0 60597 9900.00000 0 -9679160.602 -15040576.923 -18178574.012 10 0 60597 10800.00000 0 -7619962.434 -13887263.744 -19983446.638 10 0 60597 11700.00000 0 -5298710.246 -12811285.583 -21399848.800 10 0 60597 12600.00000 0 -2763871.036 -11860172.336 -22400170.482 10 0 60597 13500.00000 0 -72835.594 -11072612.830 -22964888.532 10 0 60597 14400.00000 0 2710220.731 -10476833.846 -23082951.984 10 0 60597 15300.00000 0 5516764.477 -10089437.708 -22752002.338 10 0 60597 16200.00000 0 8276517.463 -9914747.582 -21978424.246 10 0 60597 17100.00000 0 10920148.883 -9944688.121 -20777225.258 10 0 60597 18000.00000 0 13381934.306 -10159206.529 -19171746.599 10 0 60597 18900.00000 0 15602271.019 -10527216.183 -17193210.280 10 0 60597 19800.00000 0 17529945.022 -11008022.803 -14880111.031 10 0 60597 20700.00000 0 19124055.159 -11553172.551 -12277464.801 10 0 60597 21600.00000 0 20355514.268 -12108643.450 -9435928.431 10 0 60597 22500.00000 0 21208064.997 -12617286.767 -6410807.926 10 0 60597 23400.00000 0 21678768.355 -13021414.241 -3260975.103 10 0 60597 24300.00000 0 21777945.466 -13265420.780 -47714.396 10 0 60597 25200.00000 0 21528576.163 -13298330.700 3166476.930 10 0 60597 26100.00000 0 20965181.091 -13076158.889 6319110.885 10 0 60597 27000.00000 0 20132235.845 -12563986.272 9348928.566 10 0 60597 27900.00000 0 19082185.391 -11737661.275 12197093.300 10 0 60597 28800.00000 0 17873143.688 -10585055.007 14808333.422 10 0 60597 29700.00000 0 16566376.402 -9106816.947 17132012.406 10 0 60597 30600.00000 0 15223673.293 -7316599.120 19123105.792 10 0 60597 31500.00000 0 13904721.018 -5240739.127 20743066.499 10 0 60597 32400.00000 0 12664586.498 -2917415.049 21960562.610 10 0 60597 33300.00000 0 11551415.841 -395307.115 22752074.349 10 0 60597 34200.00000 0 10604444.395 2268178.598 23102339.800 10 0 60597 35100.00000 0 9852400.115 5009051.288 23004641.788 10 0 60597 36000.00000 0 9312365.861 7759153.375 22460931.254 10 0 60597 36900.00000 0 8989147.054 10448756.050 21481785.350 10 0 60597 37800.00000 0 8875170.100 13009226.003 20086201.361 10 0 60597 38700.00000 0 8950915.048 15375654.086 18301230.387 10 0 60597 39600.00000 0 9185863.816 17489338.089 16161457.505 10 0 60597 40500.00000 0 9539924.005 19300017.741 13708337.851 10 0 60597 41400.00000 0 9965268.537 20767770.071 10989400.662 10 0 60597 42300.00000 0 10408513.957 21864486.968 8057335.849 10 0 60597 43200.00000 0 10813146.015 22574873.956 4968979.946 10 0 60597 44100.00000 0 11122090.518 22896928.797 1784220.387 10 0 60597 45000.00000 0 11280321.143 22841880.040 -1435161.180 10 0 60597 45900.00000 0 11237393.975 22433588.098 -4626684.400 10 0 60597 46800.00000 0 10949801.330 21707433.860 -7728381.491 10 0 60597 47700.00000 0 10383044.719 20708741.360 -10680000.663 10 0 60597 48600.00000 0 9513338.330 19490800.616 -13424178.096 10 0 60597 49500.00000 0 8328869.810 18112573.650 -15907555.440 10 0 60597 50400.00000 0 6830563.573 16636180.051 -18081820.725 10 0 60597 51300.00000 0 5032312.698 15124267.837 -19904652.162 10 0 60597 52200.00000 0 2960667.799 13637380.129 -21340546.202 10 0 60597 53100.00000 0 653994.044 12231428.433 -22361513.433 10 0 60597 54000.00000 0 -1838870.134 10955378.742 -22947628.605 10 0 60597 54900.00000 0 -4460398.155 9849247.747 -23087423.824 10 0 60597 55800.00000 0 -7146530.994 8942493.351 -22778117.007 10 0 60597 56700.00000 0 -9829114.602 8252867.065 -22025670.881 10 0 60597 57600.00000 0 -12438518.190 7785776.399 -20844681.004 10 0 60597 58500.00000 0 -14906324.686 7534183.817 -19258094.651 10 0 60597 59400.00000 0 -17167981.448 7479046.181 -17296765.681 10 0 60597 60300.00000 0 -19165300.766 7590275.636 -14998853.729 10 0 60597 61200.00000 0 -20848705.708 7828180.822 -12409079.309 10 0 60597 62100.00000 0 -22179127.475 8145326.736 -9577849.311 10 0 60597 63000.00000 0 -23129475.020 8488733.772 -6560270.158 10 0 60597 63900.00000 0 -23685615.616 8802321.853 -3415068.325 10 0 60597 64800.00000 0 -23846825.841 9029495.179 -203439.911 10 0 60597 65700.00000 0 -23625694.861 9115757.027 3012147.531 10 0 60597 66600.00000 0 -23047485.132 9011242.885 6169176.665 10 0 60597 67500.00000 0 -22148978.686 8673063.801 9206300.922 10 0 60597 68400.00000 0 -20976858.816 8067360.065 12064539.515 10 0 60597 69300.00000 0 -19585696.541 7170977.893 14688423.185 10 0 60597 70200.00000 0 -18035627.568 5972697.955 17027068.312 10 0 60597 71100.00000 0 -16389818.148 4473963.705 19035158.752 10 0 60597 72000.00000 0 -14711826.625 2689078.647 20673816.887 10 0 60597 72900.00000 0 -13062971.260 644864.002 21911347.834 10 0 60597 73800.00000 0 -11499814.117 -1620209.302 22723843.461 10 0 60597 74700.00000 0 -10071865.453 -4057378.556 23095635.565 10 0 60597 75600.00000 0 -8819603.421 -6609381.259 23019590.537 10 0 60597 76500.00000 0 -7772890.465 -9212607.512 22497240.684 10 0 60597 77400.00000 0 -6949851.166 -11799524.433 21538750.296 10 0 60597 78300.00000 0 -6356257.052 -14301273.108 20162717.419 10 0 60597 79200.00000 0 -5985442.892 -16650331.543 18395815.135 10 0 60597 80100.00000 0 -5818757.025 -18783134.250 16272278.932 10 0 60597 81000.00000 0 -5826526.201 -20642540.763 13833249.479 10 0 60597 81900.00000 0 -5969494.051 -22180051.373 11125982.719 10 0 60597 82800.00000 0 -6200672.640 -23357678.559 8202941.738 10 0 60597 83700.00000 0 -6467529.195 -24149396.529 5120787.171 10 0 60597 84600.00000 0 -6714415.990 -24542108.603 1939284.949 10 0 60597 85500.00000 0 -6885140.921 -24536091.939 -1279847.918 99